Skip Page Navigation
NASA JPL Caltech
NASA Logo - Jet Propulsion Laboratory + View the NASA Portal
+ Center for Near-Earth Object Studies
JPL Home Earth Solar System Stars & Galaxies Technology
JPL Solar System Dynamics
BODIES ORBITS EPHEMERIDES TOOLS PHYSICAL DATA DISCOVERY FAQ SITE MAP
IMPORTANT: The SSD Announcement email list is now available. Major changes are coming in the near future, including possible hostname and/or URL changes. To be notified of such changes, subscribe to this email list.

Please visit this page for more details.


JPL Small-Body Database Browser
Search: [ help ]  
379743 (2011 GW66)
Classification: Main-belt Asteroid          SPK-ID: 2379743
Ephemeris | Orbit Diagram | Orbital Elements | Mission Design | Physical Parameters | Discovery Circumstances | Close-Approach Data ]

[ show orbit diagram ]
Orbital Elements at Epoch 2458600.5 (2019-Apr-27.0) TDB
Reference: JPL 13 (heliocentric ecliptic J2000)
 Element Value Uncertainty (1-sigma)   Units 
e .1302211983988793 9.7192e-08  
a 2.597409325740578 2.7962e-08 au
q 2.259171570610215 2.6545e-07 au
i 9.787094915778525 9.3082e-06 deg
node 136.6818314076847 5.0933e-05 deg
peri 356.5629246068608 7.464e-05 deg
M 27.17478763675726 4.8269e-05 deg
tp 2458485.082230206643
(2019-Jan-01.58223021)
0.00020574 TDB
period 1529.005403133548
4.19
2.4691e-05
6.76e-08
d
yr
n .235447173216141 3.802e-09 deg/d
Q 2.935647080870941 3.1603e-08 au
  Orbit Determination Parameters
   # obs. used (total)      194  
   data-arc span      6819 days (18.67 yr)  
   first obs. used      2000-09-05  
   last obs. used      2019-05-08  
   planetary ephem.      DE431  
   SB-pert. ephem.      SB431-N16  
   condition code      0  
   norm. resid. RMS      .65514  
   source      ORB  
   producer      Otto Matic  
   solution date      2019-May-30 09:45:45  

Additional Information
 Earth MOID = 1.27389 au 
 Jupiter MOID = 2.10156 au 
 T_jup = 3.384 
[ show covariance matrix ]

Ephemeris | Orbit Diagram | Orbital Elements | Mission Design | Physical Parameters | Discovery Circumstances | Close-Approach Data ]

Physical Parameter Table
Parameter Symbol Value Units Sigma Reference Notes
absolute magnitude H 16.5   n/a MPO423398  

379743 (2011 GW66)          Discovered 2002-Jan-09 by LINEAR at Socorro
Reference: Last Updated: 2013-11-20

[ show close-approach data ]
Alternate Designations
 2011 GW66 = 2002 AX83 = 2005 XZ65 
Ephemeris | Orbit Diagram | Orbital Elements | Mission Design | Physical Parameters | Discovery Circumstances | Close-Approach Data ]
ABOUT SSD CREDITS/AWARDS PRIVACY/COPYRIGHT GLOSSARY LINKS
FirstGov 2019-Dec-10 03:07 UT
(server date/time)  
NASA Home Page
Site Manager:   Ryan S. Park
Webmaster  Alan B. Chamberlin